• In Italy
  • List of Countries
  • For 7 days
  • Water Temperature
  • Satellite Maps
  • Weather Map
  • Weather Widgets
  • user-avatar
    Login

    Hourly Weather Bhopal

    Today, 19 November, Sunday

    Time Temperature Precipitation Wind Pressure Humidity
    00:00 +22°C° 0 mm 3 mps 717 mmHg 62%
    01:00 +21°C° 0 mm 3 mps 716 mmHg 61%
    02:00 +21°C° 0 mm 3 mps 716 mmHg 60%
    03:00 +20°C° 0 mm 3 mps 716 mmHg 60%
    04:00 +20°C° 0 mm 3 mps 716 mmHg 59%
    05:00 +19°C° 0 mm 2 mps 716 mmHg 58%
    06:00 +20°C° 0 mm 3 mps 717 mmHg 55%
    07:00 +21°C° 0 mm 3 mps 718 mmHg 52%
    08:00 +22°C° 0 mm 4 mps 718 mmHg 49%
    09:00 +25°C° 0 mm 3 mps 718 mmHg 46%
    10:00 +27°C° 0 mm 3 mps 718 mmHg 43%
    11:00 +28°C° 0 mm 3 mps 718 mmHg 40%
    12:00 +29°C° 0 mm 3 mps 718 mmHg 39%
    13:00 +30°C° 0 mm 2 mps 717 mmHg 37%
    14:00 +30°C° 0 mm 1 mps 717 mmHg 36%
    15:00 +29°C° 0 mm 1 mps 717 mmHg 38%
    16:00 +28°C° 0 mm 1 mps 716 mmHg 40%
    17:00 +27°C° 0 mm 1 mps 716 mmHg 42%
    18:00 +27°C° 0 mm 1 mps 717 mmHg 43%
    19:00 +26°C° 0 mm 1 mps 717 mmHg 43%
    20:00 +26°C° 0 mm 1 mps 717 mmHg 44%
    21:00 +25°C° 0 mm 2 mps 718 mmHg 45%
    22:00 +25°C° 0 mm 2 mps 718 mmHg 47%
    23:00 +24°C° 0 mm 3 mps 718 mmHg 48%

    Tomorrow, 20 November, Monday

    Time Temperature Precipitation Wind Pressure Humidity
    00:00 +24°C° 0 mm 3 mps 717 mmHg 49%
    01:00 +22°C° 0 mm 3 mps 717 mmHg 49%
    02:00 +22°C° 0 mm 3 mps 717 mmHg 50%
    03:00 +21°C° 0 mm 3 mps 717 mmHg 50%
    04:00 +20°C° 0 mm 3 mps 717 mmHg 51%
    05:00 +20°C° 0 mm 3 mps 717 mmHg 51%
    06:00 +21°C° 0 mm 3 mps 718 mmHg 49%
    07:00 +22°C° 0 mm 4 mps 719 mmHg 48%
    08:00 +22°C° 0 mm 4 mps 719 mmHg 46%
    09:00 +25°C° 0 mm 4 mps 719 mmHg 43%
    10:00 +27°C° 0 mm 4 mps 719 mmHg 39%
    11:00 +29°C° 0 mm 5 mps 720 mmHg 36%
    12:00 +29°C° 0 mm 4 mps 719 mmHg 34%
    13:00 +30°C° 0 mm 3 mps 718 mmHg 33%
    14:00 +30°C° 0 mm 2 mps 717 mmHg 31%
    15:00 +29°C° 0 mm 2 mps 717 mmHg 33%
    16:00 +28°C° 0 mm 2 mps 717 mmHg 36%
    17:00 +27°C° 0 mm 1 mps 717 mmHg 38%
    18:00 +26°C° 0 mm 2 mps 717 mmHg 39%
    19:00 +25°C° 0 mm 2 mps 718 mmHg 40%
    20:00 +24°C° 0 mm 2 mps 718 mmHg 41%
    21:00 +24°C° 0 mm 3 mps 718 mmHg 42%
    22:00 +22°C° 0 mm 3 mps 718 mmHg 43%
    23:00 +21°C° 0 mm 3 mps 718 mmHg 44%

    Day after tomorrow, 21 November, Tuesday

    Time Temperature Precipitation Wind Pressure Humidity
    00:00 +20°C° 0 mm 3 mps 717 mmHg 44%
    01:00 +20°C° 0 mm 3 mps 717 mmHg 45%
    02:00 +19°C° 0 mm 3 mps 717 mmHg 45%
    03:00 +19°C° 0 mm 3 mps 717 mmHg 45%
    04:00 +19°C° 0 mm 3 mps 717 mmHg 46%
    05:00 +18°C° 0 mm 3 mps 716 mmHg 46%
    06:00 +19°C° 0 mm 3 mps 717 mmHg 45%
    07:00 +20°C° 0 mm 3 mps 718 mmHg 44%
    08:00 +21°C° 0 mm 4 mps 718 mmHg 43%
    09:00 +23°C° 0 mm 4 mps 718 mmHg 40%
    10:00 +26°C° 0 mm 3 mps 718 mmHg 36%
    11:00 +28°C° 0 mm 3 mps 718 mmHg 33%
    12:00 +28°C° 0 mm 2 mps 718 mmHg 33%
    13:00 +29°C° 0 mm 1 mps 717 mmHg 32%
    14:00 +28°C° 0 mm 0 mps 716 mmHg 31%
    15:00 +27°C° 0 mm 0 mps 716 mmHg 35%
    16:00 +27°C° 0 mm 1 mps 716 mmHg 38%
    17:00 +26°C° 0 mm 1 mps 716 mmHg 41%
    18:00 +25°C° 0 mm 1 mps 716 mmHg 41%
    19:00 +25°C° 0 mm 1 mps 717 mmHg 42%
    20:00 +24°C° 0 mm 1 mps 717 mmHg 43%
    21:00 +23°C° 0 mm 2 mps 717 mmHg 44%
    22:00 +23°C° 0 mm 2 mps 717 mmHg 45%
    23:00 +21°C° 0 mm 2 mps 717 mmHg 47%

    22 November, Wednesday

    Time Temperature Precipitation Wind Pressure Humidity
    00:00 +20°C° 0 mm 2 mps 716 mmHg 47%
    01:00 +20°C° 0 mm 2 mps 716 mmHg 47%
    02:00 +19°C° 0 mm 2 mps 716 mmHg 48%
    03:00 +19°C° 0 mm 2 mps 716 mmHg 47%
    04:00 +19°C° 0 mm 2 mps 716 mmHg 47%
    05:00 +18°C° 0 mm 2 mps 716 mmHg 46%
    06:00 +19°C° 0 mm 3 mps 716 mmHg 44%
    07:00 +20°C° 0 mm 3 mps 717 mmHg 42%
    08:00 +21°C° 0 mm 3 mps 718 mmHg 40%
    09:00 +24°C° 0 mm 3 mps 718 mmHg 38%
    10:00 +26°C° 0 mm 2 mps 718 mmHg 35%
    11:00 +27°C° 0 mm 2 mps 718 mmHg 33%
    12:00 +28°C° 0 mm 2 mps 717 mmHg 32%
    13:00 +29°C° 0 mm 2 mps 717 mmHg 31%
    14:00 +30°C° 0 mm 2 mps 716 mmHg 30%
    15:00 +28°C° 0 mm 2 mps 716 mmHg 32%
    16:00 +27°C° 0 mm 2 mps 716 mmHg 34%
    17:00 +26°C° 0 mm 2 mps 715 mmHg 36%
    18:00 +25°C° 0 mm 2 mps 716 mmHg 36%
    19:00 +24°C° 0 mm 2 mps 716 mmHg 35%
    20:00 +23°C° 0 mm 2 mps 717 mmHg 35%
    21:00 +21°C° 0 mm 2 mps 717 mmHg 34%
    22:00 +21°C° 0 mm 2 mps 717 mmHg 34%
    23:00 +20°C° 0 mm 2 mps 717 mmHg 34%

    23 November, Thursday

    Time Temperature Precipitation Wind Pressure Humidity
    00:00 +19°C° 0 mm 2 mps 716 mmHg 34%
    01:00 +19°C° 0 mm 2 mps 716 mmHg 33%
    02:00 +18°C° 0 mm 2 mps 715 mmHg 33%
    03:00 +18°C° 0 mm 2 mps 716 mmHg 32%
    04:00 +18°C° 0 mm 2 mps 716 mmHg 32%
    05:00 +17°C° 0 mm 2 mps 716 mmHg 31%
    06:00 +18°C° 0 mm 2 mps 716 mmHg 31%
    07:00 +20°C° 0 mm 2 mps 717 mmHg 31%
    08:00 +21°C° 0 mm 2 mps 718 mmHg 30%
    09:00 +24°C° 0 mm 1 mps 718 mmHg 28%
    10:00 +26°C° 0 mm 1 mps 718 mmHg 26%
    11:00 +28°C° 0 mm 1 mps 718 mmHg 24%
    12:00 +29°C° 0 mm 2 mps 717 mmHg 24%
    13:00 +29°C° 0 mm 2 mps 717 mmHg 23%
    14:00 +30°C° 0 mm 2 mps 716 mmHg 23%
    15:00 +29°C° 0 mm 2 mps 716 mmHg 25%
    16:00 +27°C° 0 mm 2 mps 716 mmHg 28%
    17:00 +25°C° 0 mm 2 mps 716 mmHg 30%
    18:00 +24°C° 0 mm 2 mps 716 mmHg 29%
    19:00 +23°C° 0 mm 2 mps 717 mmHg 28%
    20:00 +21°C° 0 mm 2 mps 717 mmHg 26%
    21:00 +21°C° 0 mm 2 mps 717 mmHg 26%
    22:00 +20°C° 0 mm 2 mps 717 mmHg 25%
    23:00 +20°C° 0 mm 2 mps 717 mmHg 25%

    24 November, Friday

    Time Temperature Precipitation Wind Pressure Humidity
    00:00 +19°C° 0 mm 2 mps 716 mmHg 25%
    01:00 +20°C° 0 mm 1 mps 716 mmHg 25%
    02:00 +19°C° 0 mm 1 mps 716 mmHg 25%
    03:00 +19°C° 0 mm 1 mps 716 mmHg 26%
    04:00 +19°C° 0 mm 1 mps 716 mmHg 26%
    05:00 +18°C° 0 mm 1 mps 716 mmHg 26%
    06:00 +20°C° 0 mm 1 mps 717 mmHg 26%
    07:00 +21°C° 0 mm 1 mps 717 mmHg 26%
    08:00 +22°C° 0 mm 1 mps 718 mmHg 27%
    09:00 +24°C° 0 mm 1 mps 718 mmHg 24%
    10:00 +26°C° 0 mm 1 mps 718 mmHg 22%
    11:00 +28°C° 0 mm 2 mps 718 mmHg 20%
    12:00 +29°C° 0 mm 2 mps 718 mmHg 20%
    13:00 +30°C° 0 mm 3 mps 717 mmHg 20%
    14:00 +30°C° 0 mm 3 mps 716 mmHg 20%
    15:00 +29°C° 0 mm 3 mps 716 mmHg 22%
    16:00 +27°C° 0 mm 2 mps 716 mmHg 25%
    17:00 +25°C° 0 mm 2 mps 716 mmHg 28%
    18:00 +24°C° 0 mm 2 mps 716 mmHg 28%
    19:00 +23°C° 0 mm 2 mps 717 mmHg 27%
    20:00 +21°C° 0 mm 2 mps 717 mmHg 27%
    21:00 +21°C° 0 mm 2 mps 717 mmHg 26%
    22:00 +20°C° 0 mm 2 mps 717 mmHg 26%
    23:00 +19°C° 0 mm 2 mps 717 mmHg 25%
    Show more